Lapse_Rate
6.5 6.8 7.0 7.1 7.2 7.0 7.6 7.4 7.1 7.2 7.3 7.1 6.8 6.9 6.6 6.6 6.4 6.2 6.3 6.2 6.1 5.7 5.6 5.1 5.0 4.8 4.8 5.0 5.0 5.1 5.1 4.9 5.0 5.1 5.1 5.2 5.5 5.5 5.6 5.6 5.5 5.8 5.9 6.0
6.9 6.8 6.7 7.6 7.8 7.6 8.0 7.9 7.8 7.4 7.3 7.4 7.3 7.2 7.0 6.8 6.5 6.2 6.1 6.3 6.2 5.9 5.8 5.4 5.1 5.1 5.2 5.0 5.1 5.1 5.2 5.2 5.2 5.1 5.4 5.7 5.8 6.0 5.9 5.8 5.8 5.7 5.9 5.9
6.8 7.6 6.9 6.9 7.6 7.9 8.0 8.1 8.1 7.8 7.9 7.5 7.6 7.4 7.5 7.4 6.9 6.3 6.2 6.0 6.0 6.1 5.8 5.6 5.4 5.3 5.3 5.3 5.3 5.3 5.1 5.2 5.3 5.4 5.6 5.9 5.9 5.7 5.7 5.7 5.8 5.6 5.6 5.7
7.2 7.7 7.4 7.3 7.5 8.0 8.0 7.4 7.9 8.1 7.9 7.4 7.4 7.7 8.1 7.9 7.6 6.9 6.4 6.2 6.2 6.3 6.3 6.1 5.7 5.5 5.2 5.1 5.5 5.6 5.5 5.3 5.3 5.5 5.4 5.4 5.5 5.6 5.4 5.4 5.5 5.5 5.8 5.9
7.2 7.3 7.4 7.3 7.3 7.7 8.0 8.0 7.5 7.4 7.6 7.4 7.2 6.9 7.2 7.8 7.4 7.7 7.3 6.8 6.1 6.1 6.2 6.2 6.2 6.0 5.8 5.4 5.3 5.3 5.4 5.4 5.4 5.4 5.5 5.3 5.3 5.2 5.2 5.4 5.6 5.5 5.5 5.3
7.0 7.1 7.3 7.3 7.4 7.5 7.8 7.9 7.7 7.4 7.2 6.7 6.5 6.2 6.1 5.8 6.0 6.4 6.6 6.7 6.1 6.0 6.0 6.2 6.2 6.7 6.0 5.9 5.7 5.3 5.2 5.3 5.5 5.5 5.4 5.4 5.5 5.4 5.4 5.4 5.4 5.4 5.6 5.6
7.1 7.1 7.4 7.5 7.6 7.5 7.5 7.6 7.3 6.4 5.8 5.5 6.2 5.7 4.6 5.5 6.1 7.1 7.0 6.5 6.1 6.0 6.4 6.8 6.6 7.1 6.5 6.5 6.3 5.7 5.8 5.6 5.4 5.5 5.6 5.8 5.7 5.7 6.0 6.0 6.0 6.0 5.9 5.9
7.5 7.4 7.7 7.5 7.7 7.6 7.5 7.5 7.3 5.7 4.8 5.5 5.6 5.0 5.1 5.4 6.3 6.7 6.4 6.2 6.1 5.7 6.5 6.9 6.9 6.4 6.0 6.4 6.6 6.2 5.7 5.7 5.9 5.5 5.6 5.6 5.8 5.8 6.2 6.3 6.5 6.5 6.7 6.5
7.5 7.6 8.1 7.9 7.8 7.7 7.5 7.5 7.3 7.1 5.8 5.4 5.1 4.7 4.9 5.2 5.6 6.0 5.9 5.9 5.9 5.8 6.5 6.3 6.2 6.5 6.0 6.3 6.4 6.2 6.0 5.8 5.8 6.1 6.1 6.3 6.4 6.1 6.0 6.1 6.3 6.4 6.2 5.9
7.8 7.7 8.0 7.9 7.6 7.5 7.5 7.4 7.4 7.3 5.1 4.9 5.0 4.9 4.2 5.0 5.1 5.6 5.4 5.5 5.7 6.0 5.8 5.4 5.8 6.0 6.4 6.5 6.7 6.6 6.3 6.3 6.5 6.5 6.6 6.7 6.7 6.7 6.8 6.8 6.4 6.8 6.5 6.4
8.1 8.2 8.0 8.1 8.0 8.1 7.8 7.7 7.5 7.5 6.8 5.1 4.3 5.1 4.8 5.1 5.3 5.5 5.7 5.8 5.8 5.7 5.9 6.2 6.3 6.7 6.7 6.6 6.9 7.2 7.0 6.6 6.8 7.0 7.3 7.4 7.4 7.2 7.2 7.2 6.9 6.6 6.8 6.5
8.6 8.7 8.6 8.1 7.9 8.0 8.2 8.0 7.9 8.0 7.0 6.5 6.2 5.4 5.5 5.6 5.8 6.0 6.0 5.7 5.7 5.9 6.1 6.2 6.4 6.2 6.7 6.7 6.8 7.1 7.0 6.8 6.9 7.0 7.0 7.0 7.0 7.1 7.3 7.3 7.2 7.2 7.0 6.9
9.0 9.0 8.7 7.9 7.9 7.7 7.8 7.9 8.0 8.1 7.7 7.0 6.4 5.7 5.7 5.8 5.9 6.0 6.2 6.3 6.4 6.5 6.6 6.7 6.8 7.0 7.2 7.4 7.3 7.3 7.1 6.9 7.0 7.0 7.0 6.8 6.8 6.8 6.8 6.9 7.0 7.1 7.2 7.4
9.0 9.0 8.9 8.6 8.3 7.9 7.6 7.5 7.5 7.7 7.9 7.6 7.1 6.5 5.9 6.3 6.5 6.6 6.7 6.7 6.5 6.4 6.7 6.7 6.8 7.1 7.3 7.3 7.4 7.3 7.1 6.9 6.7 6.9 7.1 7.2 7.2 7.0 6.8 6.6 6.7 6.7 6.9 7.3
8.7 8.6 8.5 8.4 8.1 7.6 7.3 7.2 7.3 7.4 7.5 7.7 7.5 7.0 6.4 6.5 6.6 6.7 6.9 7.0 7.0 7.0 6.9 6.8 6.7 6.8 6.9 6.9 6.8 6.7 6.8 7.0 7.1 7.0 7.0 7.1 7.1 7.1 7.1 6.9 7.0 6.8 6.8 6.9
8.4 7.9 7.7 7.3 7.3 7.2 7.1 7.1 7.0 7.1 7.1 7.2 7.3 6.7 6.4 6.4 6.5 6.6 6.7 6.7 6.6 6.6 6.6 6.7 6.8 6.7 6.6 6.6 6.5 6.4 6.4 6.4 6.5 6.5 6.5 6.6 6.9 7.2 7.1 7.1 7.1 6.9 6.9 6.9
8.2 8.1 7.7 7.3 7.1 7.0 6.8 6.8 6.9 7.0 7.2 7.2 7.3 7.3 6.7 6.8 6.9 6.9 6.9 6.8 6.7 6.8 6.9 7.0 6.9 6.9 7.0 6.9 6.8 6.7 6.5 6.6 6.5 6.4 6.5 6.6 6.7 6.7 6.8 6.9 7.0 7.0 6.8 6.9
8.0 7.9 7.8 7.2 6.8 6.0 6.2 6.6 6.7 6.9 7.3 7.2 7.3 7.6 7.4 7.4 7.5 7.4 7.2 7.1 7.2 7.2 7.0 7.0 7.0 6.9 6.9 7.0 7.1 7.0 7.0 6.9 6.9 7.0 6.9 6.7 6.5 6.4 6.4 6.5 6.6 6.7 6.7 6.5
7.5 7.6 7.4 7.3 6.5 5.9 6.1 6.4 6.7 6.7 6.9 7.2 7.4 7.4 7.3 7.3 7.2 7.1 7.0 7.0 7.0 7.0 7.0 7.0 7.0 7.0 6.9 7.0 6.9 6.9 7.0 7.1 7.0 7.0 6.8 6.6 6.5 6.3 6.1 6.0 6.1 6.3 6.5 6.8
7.1 7.5 7.7 7.1 6.8 5.7 7.0 6.9 7.0 6.9 7.0 7.1 7.0 7.1 7.1 7.1 7.1 7.1 7.2 7.2 7.0 6.9 6.8 6.8 6.8 6.4 6.3 6.3 6.2 6.0 6.0 6.2 6.5 6.6 6.5 6.6 6.3 6.3 6.4 6.3 6.2 6.2 6.3 6.4
7.4 7.4 7.3 7.1 7.0 6.9 7.2 7.3 7.1 6.9 6.9 6.9 6.9 6.8 6.8 6.9 6.8 6.8 6.8 6.9 6.9 6.7 6.7 6.5 6.5 6.4 6.1 5.9 5.9 5.8 5.6 5.8 5.9 5.9 6.0 6.0 5.9 5.7 6.1 6.3 6.1 5.9 6.0 6.1
7.6 7.4 7.3 7.2 7.3 7.4 7.4 7.2 7.1 7.1 6.9 6.8 6.7 6.8 6.8 6.8 6.7 6.4 6.4 6.6 6.9 6.7 6.5 6.5 6.5 6.3 6.2 6.0 5.8 5.8 5.9 6.1 5.9 5.7 5.5 5.6 5.9 6.0 5.9 5.9 6.3 5.9 5.8 6.1
7.6 7.5 7.6 7.5 7.5 7.6 7.5 7.3 7.3 7.2 7.1 6.9 6.8 6.7 6.6 6.4 6.2 6.3 6.6 6.8 6.6 6.4 6.4 6.3 6.3 6.5 6.2 6.1 6.2 6.1 5.9 5.5 5.1 5.0 5.0 5.0 5.7 5.6 5.5 5.6 5.7 5.9 6.2 5.8
7.5 7.5 7.4 7.5 7.5 7.4 7.2 7.2 7.1 7.0 7.0 7.1 7.2 6.9 6.7 6.5 6.3 6.5 6.6 6.6 6.6 6.4 6.4 6.7 6.9 6.8 6.4 5.7 4.9 4.8 4.3 4.0 4.0 3.9 3.7 4.0 5.4 5.3 5.5 5.9 6.1 6.3 6.1 5.8
7.3 7.3 7.4 7.4 7.3 7.3 7.3 7.1 6.8 6.8 7.0 7.0 6.9 6.7 6.6 6.4 6.5 6.6 6.7 6.8 6.8 6.7 6.7 6.9 6.8 6.6 5.9 5.1 4.6 4.4 4.2 4.1 4.0 4.3 4.0 4.6 5.1 5.2 5.2 5.7 6.5 7.0 6.4 5.9
7.1 7.0 7.0 7.1 7.1 7.0 7.0 7.0 6.9 7.0 7.0 6.9 6.8 6.7 6.6 6.4 6.6 6.9 7.1 7.1 6.9 6.7 6.7 6.4 6.1 6.2 5.4 5.3 5.2 4.6 4.4 4.3 4.3 4.4 4.4 4.6 4.7 5.3 5.5 6.0 6.8 7.2 7.0 6.6
Wind_Speed
3 4 4 7 6 5 4 3 3 4 7 4 6 5 12 13 9 10 9 9 9 11 9 10 12 12 11 8 9 9 8 7 5 2 3 1 3 2 3 8 14 13 11 9
5 3 3 6 4 6 4 3 5 2 5 4 5 6 13 15 15 13 13 12 10 5 7 8 10 12 14 13 11 9 10 8 7 4 2 2 3 3 3 4 8 13 11 10
4 4 1 4 4 5 2 6 4 3 5 3 5 2 9 11 6 7 10 7 6 9 9 9 12 13 12 12 12 12 11 10 8 6 3 2 2 1 0 2 3 8 13 13
4 4 2 5 2 3 3 2 5 8 4 3 2 3 3 10 15 14 9 9 7 7 7 7 8 8 11 12 9 9 8 8 7 8 5 6 4 4 3 3 3 4 10 11
5 5 3 4 4 5 3 4 4 4 5 4 4 3 5 3 11 15 14 12 6 6 8 9 10 10 9 8 7 4 3 4 6 6 7 5 4 3 2 2 4 5 5 10
3 4 1 1 3 4 5 6 8 5 3 2 3 4 3 3 5 7 6 8 8 8 6 5 2 6 6 6 6 5 5 3 4 3 4 5 7 6 4 4 4 4 4 4
4 4 4 1 3 4 7 6 3 3 3 5 4 4 1 9 9 12 11 11 10 7 5 5 7 6 5 4 5 5 5 2 4 5 6 6 7 6 6 6 4 5 5 5
4 3 2 4 3 5 3 6 6 5 4 3 4 4 6 5 8 9 10 11 10 8 6 5 4 6 5 7 6 5 6 4 5 5 7 7 8 6 6 8 7 8 7 8
4 3 3 4 2 3 3 2 4 7 3 3 2 2 3 10 10 9 10 10 6 3 7 2 4 6 5 5 5 6 6 5 4 3 3 4 4 4 4 6 8 9 11 10
6 4 2 2 2 6 3 5 3 3 4 2 3 3 4 8 8 8 8 6 5 7 5 1 5 8 6 5 5 6 5 4 3 4 4 4 4 5 5 6 10 12 13 12
4 3 3 4 6 1 4 3 7 6 3 5 3 2 5 2 3 7 7 7 7 9 8 7 8 8 6 5 4 3 5 5 5 5 4 5 5 5 5 6 8 10 11 10
1 5 4 2 2 2 2 3 4 5 3 1 3 2 3 4 5 8 9 9 9 11 10 10 9 6 3 6 7 6 5 3 3 3 4 5 5 5 5 6 7 7 8 8
6 3 4 6 6 4 5 3 4 4 3 2 5 4 2 5 7 8 11 10 10 11 12 10 11 9 8 7 6 6 6 7 8 7 7 7 6 5 6 6 6 7 8 8
9 4 5 7 5 3 2 4 3 4 3 6 4 8 4 4 7 6 8 8 8 8 9 10 10 10 10 10 11 11 11 9 8 7 7 8 9 9 9 8 7 6 6 7
5 4 4 4 3 2 2 2 5 2 4 2 7 5 6 5 6 4 5 8 11 12 13 12 12 12 13 15 16 16 16 16 14 14 14 13 12 10 9 9 10 8 7 7
4 2 3 3 5 4 3 7 5 5 5 7 14 6 4 5 5 5 6 6 6 6 7 8 10 10 10 11 11 13 14 14 15 15 14 14 14 11 10 8 8 7 9 8
4 6 3 2 4 4 3 5 2 3 4 8 10 5 5 4 5 4 4 5 5 6 8 10 11 12 13 14 14 14 13 13 13 14 14 14 13 13 13 11 9 9 8 8
5 4 2 3 3 2 5 3 8 9 6 6 9 7 7 5 3 5 3 2 3 5 6 7 7 9 9 12 12 14 15 15 16 17 15 13 13 13 13 12 12 12 11 12
4 5 4 4 3 2 3 5 2 4 1 1 7 6 5 5 5 4 4 1 2 3 4 6 7 8 10 11 12 12 14 14 16 18 17 15 14 14 14 15 14 13 13 13
6 7 5 2 4 6 6 4 5 4 2 7 6 6 5 4 1 4 5 3 5 6 6 7 8 9 9 11 10 10 13 14 15 16 17 17 14 15 15 16 16 15 14 15
3 3 4 2 2 4 5 3 4 4 6 7 8 7 7 5 4 4 3 3 3 4 4 5 5 7 10 10 9 10 13 15 16 16 16 17 17 17 16 16 17 16 15 15
4 5 2 2 3 3 5 4 7 6 1 7 6 6 6 4 3 3 3 4 3 5 5 5 7 9 11 11 8 12 14 15 15 16 17 18 19 16 16 19 17 19 18 17
1 4 5 5 5 3 3 3 1 4 5 6 7 5 6 6 6 4 4 4 4 5 6 5 6 9 10 9 10 13 15 15 16 17 19 19 20 18 18 19 19 13 15 14
2 2 4 3 2 3 4 1 3 4 5 6 6 7 8 7 5 6 5 5 5 5 6 4 7 10 12 10 12 13 13 13 15 17 19 18 17 18 17 14 14 13 12 13
4 3 5 1 3 4 7 6 5 4 5 5 5 7 9 6 6 6 5 6 6 7 5 5 9 9 13 11 13 14 11 12 13 16 17 17 15 15 15 15 13 13 14 15
4 6 4 5 7 5 5 3 8 8 8 8 8 5 5 7 7 4 6 6 5 8 6 8 10 10 14 12 14 15 13 10 11 14 14 16 14 14 14 13 10 18 24 19
Wind_Direction
24 65 212 222 209 200 168 175 217 220 166 131 181 152 180 181 176 185 189 187 196 209 206 188 185 182 177 178 179 181 180 186 169 162 169 189 220 230 245 238 240 244 248 257
16 242 220 268 219 206 255 177 247 314 139 129 168 200 185 190 198 190 188 197 199 166 173 186 186 181 184 185 189 181 192 180 194 195 169 172 176 205 223 248 245 247 245 257
178 226 279 230 81 116 108 162 166 163 109 57 111 313 188 207 190 202 205 194 185 185 177 185 184 185 180 185 188 190 194 192 190 175 122 101 63 15 317 254 248 239 236 241
226 276 144 126 78 127 104 139 110 125 98 183 69 263 255 206 202 200 202 191 197 187 178 176 177 176 188 201 190 194 189 186 193 166 176 189 187 202 227 214 228 256 248 247
256 349 40 130 172 166 179 66 63 96 96 93 358 80 306 156 208 211 198 201 174 170 162 170 182 185 184 174 186 187 182 197 182 184 200 203 226 246 210 218 236 253 266 261
257 295 3 115 69 67 137 63 40 58 88 47 338 138 304 347 299 260 194 177 146 136 169 177 128 133 156 156 163 165 165 148 141 175 222 228 242 248 247 241 241 244 246 253
354 318 310 119 82 37 70 60 359 355 12 205 307 73 45 318 318 242 177 146 139 135 52 81 90 132 144 156 150 147 130 167 154 183 211 222 233 245 262 271 265 259 254 252
138 336 356 349 104 162 62 143 151 209 189 217 356 4 311 346 33 50 103 116 118 99 66 30 48 96 88 117 126 145 159 187 196 213 220 221 224 224 226 232 240 252 249 250
139 266 313 54 61 99 168 84 166 106 4 74 251 118 91 24 43 52 76 89 98 178 93 124 64 73 78 97 108 117 114 90 50 8 291 294 292 274 277 271 259 255 253 251
199 100 360 335 77 35 114 145 68 16 131 133 20 66 344 356 12 38 42 55 40 47 54 140 100 86 52 35 33 43 61 73 31 32 23 11 334 314 291 290 286 270 262 253
128 97 270 46 22 231 1 39 53 109 103 144 130 262 1 41 31 77 76 74 68 63 51 64 77 62 55 18 30 353 23 26 13 1 348 342 322 312 302 296 316 310 283 262
132 120 81 125 321 270 99 108 127 119 207 72 124 265 358 44 22 75 66 70 66 66 64 62 46 56 42 19 4 350 344 351 274 275 280 290 294 296 286 282 294 302 320 299
183 24 72 356 352 5 43 36 109 105 100 190 128 222 98 55 51 45 78 64 58 52 46 36 35 25 16 3 346 341 325 322 320 318 313 305 288 277 280 284 291 304 316 314
86 86 143 181 183 173 8 357 85 108 109 165 189 150 150 90 78 47 60 57 55 45 35 24 17 9 2 357 355 349 344 335 322 301 281 274 278 288 297 293 286 286 291 295
89 96 86 70 26 122 91 349 339 84 141 138 169 122 170 154 122 68 60 42 33 22 17 12 3 1 358 354 350 346 337 334 334 326 319 308 297 278 266 278 291 292 287 284
20 141 122 56 6 24 74 12 50 60 110 69 117 108 148 115 90 72 60 51 37 18 3 354 352 349 345 339 333 327 320 327 327 319 310 305 299 293 283 266 263 269 285 294
76 128 97 192 349 34 9 341 359 65 33 144 149 184 142 141 137 144 101 59 29 7 355 347 341 337 334 332 327 320 313 310 309 305 305 306 306 300 300 298 295 293 278 282
113 90 71 136 38 161 283 323 107 104 57 97 107 124 141 151 125 130 120 108 31 350 332 326 316 309 309 303 302 306 309 307 309 306 300 298 299 297 298 294 294 293 287 278
68 116 72 111 71 146 340 255 199 120 260 202 137 151 148 110 134 216 169 135 351 296 285 279 273 275 280 280 292 291 296 297 303 303 302 302 301 295 293 288 284 282 282 276
61 73 103 109 128 190 234 213 144 133 304 195 171 167 150 90 121 257 168 177 218 233 242 250 256 262 265 271 271 280 296 300 294 289 296 296 290 284 283 283 282 278 274 271
33 21 114 127 141 279 242 163 145 97 238 167 168 179 162 179 198 165 197 228 204 217 263 277 285 284 288 296 293 294 303 303 303 296 286 285 286 283 274 276 276 273 269 270
156 131 141 91 98 244 180 98 159 208 24 167 163 166 181 222 239 245 264 253 262 297 306 303 305 308 309 306 303 300 305 305 305 299 291 284 278 276 277 277 274 273 270 269
63 172 179 165 212 259 280 215 133 158 146 171 155 163 179 199 223 209 249 267 278 283 282 276 273 292 297 309 303 307 304 308 306 300 294 290 286 276 272 272 271 263 259 257
355 153 92 82 273 244 257 218 180 171 162 156 164 166 172 198 214 224 237 263 270 273 278 278 294 299 297 296 300 290 294 300 303 304 300 299 294 289 276 266 262 255 248 252
198 128 140 335 279 315 272 233 191 166 132 129 137 171 192 195 225 214 230 251 262 272 288 281 281 282 281 287 283 283 295 292 294 306 314 319 310 299 286 270 253 243 238 236
182 167 152 217 206 170 230 226 167 171 181 177 162 169 200 200 224 216 245 247 254 272 274 273 278 262 274 274 266 275 281 282 292 314 322 331 329 332 325 326 272 236 236 234